SAMSAT-IONOSPHERE (RS7*)

Last updated on Thu Oct 30 2025 00:03:11 GMT+0000 (Coordinated Universal Time)

1 61784U 24199BB 25302.53436679 .00031595 00000+0 79933-3 0 9992 2 61784 97.3282 170.6459 0014832 50.6518 309.6040 15.39595137101871
UTC large
Height (km)
Speed (km/s)
/
Latitude / Longitude
Inclination (degrees)
Orbital Period (minutes)
Azimuth
Elevation
Range (km)
Doppler Factor

Next 0 passes for location: London (51.5072 / 0.1276)

Sorry there are no passes over London.